TimePST,TemperatureF,Dew PointF,Humidity,Sea Level PressureIn,VisibilityMPH,Wind Direction,Wind SpeedMPH,Gust SpeedMPH,PrecipitationIn,Events,Conditions,WindDirDegrees,DateUTC
12:53 AM,64.9,60.1,84,30.13,6.0,Calm,Calm,-,N/A,,Haze,0,2012-11-30 08:53:00
1:53 AM,64.9,60.1,84,30.13,5.0,Calm,Calm,-,0.00,Rain,Light Rain,0,2012-11-30 09:53:00
2:12 AM,64.4,60.8,88,30.13,1.8,Calm,Calm,-,0.01,Rain,Light Rain,0,2012-11-30 10:12:00
2:27 AM,64.4,60.8,88,30.13,1.5,Calm,Calm,-,0.02,Rain,Light Rain,0,2012-11-30 10:27:00
2:48 AM,64.4,60.8,88,30.12,1.8,Calm,Calm,-,0.03,Rain,Light Rain,0,2012-11-30 10:48:00
2:51 AM,64.4,60.8,88,30.12,2.0,Calm,Calm,-,0.03,,Overcast,0,2012-11-30 10:51:00
2:53 AM,64.0,61.0,90,30.12,2.0,Calm,Calm,-,0.03,,Overcast,0,2012-11-30 10:53:00
3:00 AM,64.4,60.8,88,30.12,2.0,Calm,Calm,-,N/A,,Overcast,0,2012-11-30 11:00:00
3:10 AM,64.4,60.8,88,30.12,1.8,Calm,Calm,-,0.00,Rain,Light Rain,0,2012-11-30 11:10:00
3:22 AM,64.4,60.8,88,30.12,1.8,Calm,Calm,-,0.01,Rain,Light Rain,0,2012-11-30 11:22:00
3:36 AM,64.4,60.8,88,30.11,2.0,Calm,Calm,-,0.02,Rain,Light Rain,0,2012-11-30 11:36:00
3:53 AM,64.0,61.0,90,30.11,1.8,Calm,Calm,-,0.02,Rain,Light Rain,0,2012-11-30 11:53:00
4:08 AM,64.4,60.8,88,30.11,2.5,Calm,Calm,-,0.01,Rain,Light Rain,0,2012-11-30 12:08:00
4:17 AM,64.4,60.8,88,30.11,2.5,Calm,Calm,-,0.01,Rain,Light Rain,0,2012-11-30 12:17:00
4:46 AM,64.4,60.8,88,30.11,2.5,Calm,Calm,-,0.02,Rain,Light Rain,0,2012-11-30 12:46:00
4:53 AM,64.0,60.1,87,30.10,2.5,ESE,3.5,-,0.03,Rain,Light Rain,120,2012-11-30 12:53:00
5:05 AM,64.4,60.8,88,30.10,3.0,East,3.5,-,0.00,Rain,Light Rain,90,2012-11-30 13:05:00
5:23 AM,64.4,60.8,88,30.11,3.0,East,4.6,-,0.00,,Overcast,80,2012-11-30 13:23:00
5:53 AM,64.0,60.1,87,30.11,2.0,ESE,5.8,-,0.00,Rain,Light Rain,120,2012-11-30 13:53:00
5:56 AM,64.4,60.8,88,30.11,1.8,ESE,4.6,-,0.00,Rain,Light Rain,110,2012-11-30 13:56:00
6:07 AM,64.4,60.8,88,30.11,2.5,ESE,4.6,-,0.00,,Overcast,110,2012-11-30 14:07:00
6:20 AM,64.4,60.8,88,30.11,3.0,ESE,4.6,-,0.01,Rain,Light Rain,110,2012-11-30 14:20:00
6:23 AM,64.4,60.8,88,30.12,3.0,ESE,4.6,-,0.01,Rain,Light Rain,110,2012-11-30 14:23:00
6:53 AM,64.0,61.0,90,30.12,6.0,ESE,3.5,-,0.01,,Overcast,110,2012-11-30 14:53:00
7:53 AM,64.9,61.0,87,30.13,8.0,SSE,4.6,-,N/A,,Overcast,160,2012-11-30 15:53:00
9:30 AM,66.2,62.6,88,30.14,3.0,SSE,5.8,-,0.00,Rain,Light Rain,150,2012-11-30 17:30:00
9:46 AM,66.2,62.6,88,30.14,4.0,SE,5.8,-,0.00,,Overcast,140,2012-11-30 17:46:00
9:53 AM,66.0,62.1,87,30.14,3.0,SE,4.6,-,0.00,,Overcast,140,2012-11-30 17:53:00
10:03 AM,66.2,62.6,88,30.14,2.0,SE,4.6,-,0.00,Rain,Light Rain,140,2012-11-30 18:03:00
10:14 AM,66.2,62.6,88,30.14,5.0,SSE,5.8,-,0.00,,Haze,160,2012-11-30 18:14:00
10:25 AM,66.2,62.6,88,30.13,1.8,South,6.9,-,0.01,Rain,Rain,170,2012-11-30 18:25:00
10:53 AM,66.9,62.1,84,30.13,1.2,Variable,5.8,-,0.05,Rain,Rain,0,2012-11-30 18:53:00
11:39 AM,66.2,62.6,88,30.13,1.0,South,9.2,-,0.06,Rain,Rain,190,2012-11-30 19:39:00
11:53 AM,66.0,62.1,87,30.12,1.5,South,6.9,-,0.08,Rain,Light Rain,180,2012-11-30 19:53:00
12:02 PM,66.2,62.6,88,30.12,3.0,SSW,6.9,-,0.00,Rain,Light Rain,200,2012-11-30 20:02:00
12:17 PM,66.2,62.6,88,30.11,4.0,South,6.9,-,0.00,Rain,Light Rain,180,2012-11-30 20:17:00
1:22 PM,66.2,62.6,88,30.10,1.2,South,4.6,-,0.02,Rain,Light Rain,180,2012-11-30 21:22:00
1:53 PM,66.0,63.0,90,30.09,1.5,SSW,5.8,-,0.04,Rain,Light Rain,200,2012-11-30 21:53:00
2:17 PM,66.2,62.6,88,30.10,2.0,SW,5.8,-,0.01,Rain,Light Rain,230,2012-11-30 22:17:00
2:24 PM,66.2,62.6,88,30.10,2.5,SSW,4.6,-,0.01,Rain,Light Rain,200,2012-11-30 22:24:00
2:35 PM,66.2,62.6,88,30.10,3.0,SSW,6.9,-,0.02,,Overcast,200,2012-11-30 22:35:00
2:53 PM,66.9,63.0,87,30.10,6.0,SSW,4.6,-,0.02,,Overcast,210,2012-11-30 22:53:00
3:02 PM,66.2,62.6,88,30.11,6.0,SSW,4.6,-,N/A,,Overcast,200,2012-11-30 23:02:00
3:53 PM,66.9,63.0,87,30.11,10.0,SW,4.6,-,0.00,,Overcast,230,2012-11-30 23:53:00
4:03 PM,66.2,62.6,88,30.11,10.0,Calm,Calm,-,N/A,,Overcast,0,2012-12-01 00:03:00
4:35 PM,66.2,62.6,88,30.11,9.0,Calm,Calm,-,0.00,,Overcast,0,2012-12-01 00:35:00
4:53 PM,66.9,62.1,84,30.08,10.0,SSE,5.8,-,0.00,,Mostly Cloudy,150,2012-12-01 00:53:00
5:00 PM,66.2,62.6,88,30.08,10.0,SE,3.5,-,N/A,,Scattered Clouds,130,2012-12-01 01:00:00
5:21 PM,66.2,62.6,88,30.05,10.0,ESE,8.1,-,N/A,,Mostly Cloudy,120,2012-12-01 01:21:00
5:48 PM,66.2,62.6,88,30.07,10.0,Calm,Calm,-,N/A,,Overcast,0,2012-12-01 01:48:00
5:53 PM,66.9,62.1,84,30.07,10.0,Calm,Calm,-,N/A,,Overcast,0,2012-12-01 01:53:00
7:00 PM,66.2,62.6,88,30.09,8.0,Calm,Calm,-,N/A,,Overcast,0,2012-12-01 03:00:00
7:28 PM,66.2,62.6,88,30.10,7.0,Calm,Calm,-,N/A,,Overcast,0,2012-12-01 03:28:00
7:53 PM,66.0,62.1,87,30.11,7.0,Calm,Calm,-,N/A,,Overcast,0,2012-12-01 03:53:00
8:16 PM,66.2,62.6,88,30.11,6.0,SSW,3.5,-,N/A,,Overcast,210,2012-12-01 04:16:00
8:25 PM,66.2,62.6,88,30.11,6.0,SW,3.5,-,N/A,,Overcast,230,2012-12-01 04:25:00
8:34 PM,66.2,62.6,88,30.11,7.0,SW,3.5,-,N/A,,Overcast,230,2012-12-01 04:34:00
8:42 PM,66.2,62.6,88,30.12,7.0,SW,3.5,-,N/A,,Overcast,220,2012-12-01 04:42:00
8:51 PM,66.2,62.6,88,30.12,7.0,SSW,4.6,-,N/A,,Overcast,210,2012-12-01 04:51:00
8:53 PM,66.0,61.0,84,30.12,7.0,SW,4.6,-,N/A,,Overcast,230,2012-12-01 04:53:00
9:30 PM,64.4,60.8,88,30.12,6.0,SSW,3.5,-,N/A,,Overcast,210,2012-12-01 05:30:00
9:49 PM,66.2,60.8,83,30.13,6.0,Calm,Calm,-,N/A,,Haze,0,2012-12-01 05:49:00
9:53 PM,64.9,61.0,87,30.13,6.0,Calm,Calm,-,N/A,,Overcast,0,2012-12-01 05:53:00
10:53 PM,64.9,61.0,87,30.13,7.0,Calm,Calm,-,N/A,,Overcast,0,2012-12-01 06:53:00
11:09 PM,64.4,60.8,88,30.13,7.0,Calm,Calm,-,N/A,,Mostly Cloudy,0,2012-12-01 07:09:00
11:16 PM,64.4,60.8,88,30.14,7.0,Calm,Calm,-,N/A,,Mostly Cloudy,0,2012-12-01 07:16:00
11:43 PM,64.4,60.8,88,30.13,10.0,Variable,3.5,-,N/A,,Overcast,0,2012-12-01 07:43:00